Zurück zum Katalog

ATLAS 5 CENTAUR DEB

LostHEO
NORAD 43989·DEBRIS·🇺🇸 United States

Gestartet Sep 17, 2014 von Cape Canaveral Space Force Station

Loading…

Nächste Überflüge (nächste 24 Stunden)

TLE

VeraltetSource: Space-Track

Epoche: Apr 6, 2023, 15:32 UTC

1 43989U 14055AU  23096.64776325 -.00000127  00000-0  00000+0 0  9998
2 43989  20.8204 255.6421 4697390 321.1129  12.8266  1.82959316 30140

Verfolge ATLAS 5 CENTAUR DEB in Echtzeit mit AllMySat

Download on the App Store